Year,Month,Day,Hour,Minute,Value (Times are PST for temperature in C)
2013,05,05,00,00,14.30
2013,05,05,00,01,14.30
2013,05,05,00,02,14.30
2013,05,05,00,03,14.30
2013,05,05,00,04,14.40
2013,05,05,00,05,14.40
2013,05,05,00,06,14.40
2013,05,05,00,07,14.40
2013,05,05,00,08,14.40
2013,05,05,00,09,14.40
2013,05,05,00,10,14.30
2013,05,05,00,11,14.20
2013,05,05,00,12,14.10
2013,05,05,00,13,14.10
2013,05,05,00,14,14.00
2013,05,05,00,15,13.90
2013,05,05,00,16,13.80
2013,05,05,00,17,13.80
2013,05,05,00,18,13.70
2013,05,05,00,19,13.60
2013,05,05,00,20,13.50
2013,05,05,00,21,13.40
2013,05,05,00,22,13.30
2013,05,05,00,23,13.20
2013,05,05,00,24,13.10
2013,05,05,00,25,13.10
2013,05,05,00,26,13.10
2013,05,05,00,27,13.10
2013,05,05,00,28,13.10
2013,05,05,00,29,13.00
2013,05,05,00,30,13.00
2013,05,05,00,31,12.90
2013,05,05,00,32,12.90
2013,05,05,00,33,12.80
2013,05,05,00,34,12.80
2013,05,05,00,35,12.80
2013,05,05,00,36,12.70
2013,05,05,00,37,12.70
2013,05,05,00,38,12.70
2013,05,05,00,39,12.60
2013,05,05,00,40,12.60
2013,05,05,00,41,12.60
2013,05,05,00,42,12.70
2013,05,05,00,43,12.70
2013,05,05,00,44,12.70
2013,05,05,00,45,12.70
2013,05,05,00,46,12.70
2013,05,05,00,47,12.70
2013,05,05,00,48,12.70
2013,05,05,00,49,12.70
2013,05,05,00,50,12.70
2013,05,05,00,51,12.70
2013,05,05,00,52,12.70
2013,05,05,00,53,12.70
2013,05,05,00,54,12.70
2013,05,05,00,55,12.70
2013,05,05,00,56,12.70
2013,05,05,00,57,12.70
2013,05,05,00,58,12.60
2013,05,05,00,59,12.60
2013,05,05,01,00,12.60
2013,05,05,01,01,12.60
2013,05,05,01,02,12.50
2013,05,05,01,03,12.50
2013,05,05,01,04,12.40
2013,05,05,01,05,12.40
2013,05,05,01,06,12.40
2013,05,05,01,07,12.40
2013,05,05,01,08,12.40
2013,05,05,01,09,12.40
2013,05,05,01,10,12.40
2013,05,05,01,11,12.40
2013,05,05,01,12,12.40
2013,05,05,01,13,12.40
2013,05,05,01,14,12.40
2013,05,05,01,15,12.40
2013,05,05,01,16,12.40
2013,05,05,01,17,12.40
2013,05,05,01,18,12.40
2013,05,05,01,19,12.40
2013,05,05,01,20,12.40
2013,05,05,01,21,12.40
2013,05,05,01,22,12.40
2013,05,05,01,23,12.40
2013,05,05,01,24,12.40
2013,05,05,01,25,12.40
2013,05,05,01,26,12.40
2013,05,05,01,27,12.50
2013,05,05,01,28,12.50
2013,05,05,01,29,12.50
2013,05,05,01,30,12.50
2013,05,05,01,31,12.50
2013,05,05,01,32,12.50
2013,05,05,01,33,12.40
2013,05,05,01,34,12.40
2013,05,05,01,35,12.40
2013,05,05,01,36,12.40
2013,05,05,01,37,12.40
2013,05,05,01,38,12.40
2013,05,05,01,39,12.40
2013,05,05,01,40,12.40
2013,05,05,01,41,12.40
2013,05,05,01,42,12.40
2013,05,05,01,43,12.40
2013,05,05,01,44,12.30
2013,05,05,01,45,12.30
2013,05,05,01,46,12.30
2013,05,05,01,47,12.30
2013,05,05,01,48,12.30
2013,05,05,01,49,12.20
2013,05,05,01,50,12.20
2013,05,05,01,51,12.20
2013,05,05,01,52,12.20
2013,05,05,01,53,12.10
2013,05,05,01,54,12.10
2013,05,05,01,55,12.10
2013,05,05,01,56,12.00
2013,05,05,01,57,12.00
2013,05,05,01,58,12.00
2013,05,05,01,59,12.00
2013,05,05,02,00,11.90
2013,05,05,02,01,11.90
2013,05,05,02,02,11.90
2013,05,05,02,03,11.90
2013,05,05,02,04,11.80
2013,05,05,02,05,11.80
2013,05,05,02,06,11.80
2013,05,05,02,07,11.80
2013,05,05,02,08,11.80
2013,05,05,02,09,11.80
2013,05,05,02,10,11.90
2013,05,05,02,11,11.90
2013,05,05,02,12,11.90
2013,05,05,02,13,11.90
2013,05,05,02,14,11.90
2013,05,05,02,15,11.90
2013,05,05,02,16,12.00
2013,05,05,02,17,12.00
2013,05,05,02,18,12.00
2013,05,05,02,19,12.10
2013,05,05,02,20,12.10
2013,05,05,02,21,12.10
2013,05,05,02,22,12.10
2013,05,05,02,23,12.10
2013,05,05,02,24,12.10
2013,05,05,02,25,12.10
2013,05,05,02,26,12.10
2013,05,05,02,27,12.00
2013,05,05,02,28,12.10
2013,05,05,02,29,12.10
2013,05,05,02,30,12.10
2013,05,05,02,31,12.10
2013,05,05,02,32,12.10
2013,05,05,02,33,12.10
2013,05,05,02,34,12.10
2013,05,05,02,35,12.20
2013,05,05,02,36,12.20
2013,05,05,02,37,12.20
2013,05,05,02,38,12.20
2013,05,05,02,39,12.20
2013,05,05,02,40,12.20
2013,05,05,02,41,12.20
2013,05,05,02,42,12.20
2013,05,05,02,43,12.10
2013,05,05,02,44,12.10
2013,05,05,02,45,12.10
2013,05,05,02,46,12.10
2013,05,05,02,47,12.10
2013,05,05,02,48,12.10
2013,05,05,02,49,12.10
2013,05,05,02,50,12.00
2013,05,05,02,51,11.90
2013,05,05,02,52,11.80
2013,05,05,02,53,11.80
2013,05,05,02,54,11.70
2013,05,05,02,55,11.60
2013,05,05,02,56,11.50
2013,05,05,02,57,11.50
2013,05,05,02,58,11.40
2013,05,05,02,59,11.40
2013,05,05,03,00,11.40
2013,05,05,03,01,11.40
2013,05,05,03,02,11.40
2013,05,05,03,06,11.40
2013,05,05,03,07,11.40
2013,05,05,03,08,11.40
2013,05,05,03,09,11.40
2013,05,05,03,10,11.50
2013,05,05,03,11,11.50
2013,05,05,03,12,11.60
2013,05,05,03,13,11.60
2013,05,05,03,14,11.60
2013,05,05,03,15,11.60
2013,05,05,03,16,11.50
2013,05,05,03,17,11.50
2013,05,05,03,18,11.40
2013,05,05,03,19,11.40
2013,05,05,03,20,11.30
2013,05,05,03,21,11.30
2013,05,05,03,22,11.30
2013,05,05,03,23,11.30
2013,05,05,03,24,11.20
2013,05,05,03,25,11.20
2013,05,05,03,26,11.20
2013,05,05,03,27,11.20
2013,05,05,03,28,11.20
2013,05,05,03,29,11.20
2013,05,05,03,30,11.30
2013,05,05,03,31,11.30
2013,05,05,03,32,11.30
2013,05,05,03,33,11.40
2013,05,05,03,34,11.40
2013,05,05,03,35,11.40
2013,05,05,03,36,11.50
2013,05,05,03,37,11.50
2013,05,05,03,38,11.50
2013,05,05,03,39,11.50
2013,05,05,03,40,11.50
2013,05,05,03,41,11.50
2013,05,05,03,42,11.60
2013,05,05,03,43,11.60
2013,05,05,03,44,11.60
2013,05,05,03,45,11.60
2013,05,05,03,46,11.60
2013,05,05,03,47,11.60
2013,05,05,03,48,11.60
2013,05,05,03,49,11.70
2013,05,05,03,50,11.70
2013,05,05,03,51,11.70
2013,05,05,03,52,11.70
2013,05,05,03,53,11.70
2013,05,05,03,54,11.70
2013,05,05,03,55,11.70
2013,05,05,03,56,11.70
2013,05,05,03,57,11.70
2013,05,05,03,58,11.80
2013,05,05,03,59,11.70
2013,05,05,04,00,11.70
2013,05,05,04,01,11.70
2013,05,05,04,02,11.70
2013,05,05,04,03,11.70
2013,05,05,04,04,11.70
2013,05,05,04,05,11.70
2013,05,05,04,06,11.60
2013,05,05,04,07,11.60
2013,05,05,04,08,11.60
2013,05,05,04,09,11.50
2013,05,05,04,10,11.40
2013,05,05,04,11,11.40
2013,05,05,04,12,11.40
2013,05,05,04,13,11.40
2013,05,05,04,14,11.30
2013,05,05,04,15,11.30
2013,05,05,04,16,11.30
2013,05,05,04,17,11.30
2013,05,05,04,18,11.30
2013,05,05,04,19,11.30
2013,05,05,04,20,11.30
2013,05,05,04,21,11.30
2013,05,05,04,22,11.30
2013,05,05,04,23,11.30
2013,05,05,04,24,11.30
2013,05,05,04,25,11.20
2013,05,05,04,26,11.20
2013,05,05,04,27,11.20
2013,05,05,04,28,11.20
2013,05,05,04,29,11.20
2013,05,05,04,30,11.20
2013,05,05,04,31,11.20
2013,05,05,04,32,11.20
2013,05,05,04,33,11.20
2013,05,05,04,34,11.20
2013,05,05,04,35,11.20
2013,05,05,04,36,11.20
2013,05,05,04,37,11.20
2013,05,05,04,38,11.20
2013,05,05,04,39,11.20
2013,05,05,04,40,11.10
2013,05,05,04,41,11.10
2013,05,05,04,42,11.10
2013,05,05,04,43,11.10
2013,05,05,04,44,11.10
2013,05,05,04,45,11.00
2013,05,05,04,46,11.00
2013,05,05,04,47,11.00
2013,05,05,04,48,10.90
2013,05,05,04,49,10.90
2013,05,05,04,50,10.90
2013,05,05,04,51,10.90
2013,05,05,04,52,10.90
2013,05,05,04,53,10.90
2013,05,05,04,54,10.90
2013,05,05,04,55,10.90
2013,05,05,04,56,10.80
2013,05,05,04,57,10.80
2013,05,05,04,58,10.80
2013,05,05,04,59,10.80
2013,05,05,05,00,10.80
2013,05,05,05,01,10.80
2013,05,05,05,02,10.90
2013,05,05,05,03,10.90
2013,05,05,05,04,10.90
2013,05,05,05,05,10.90
2013,05,05,05,06,10.90
2013,05,05,05,07,10.90
2013,05,05,05,08,10.80
2013,05,05,05,09,10.80
2013,05,05,05,10,10.80
2013,05,05,05,11,10.80
2013,05,05,05,12,10.80
2013,05,05,05,13,10.80
2013,05,05,05,14,10.80
2013,05,05,05,15,10.70
2013,05,05,05,16,10.70
2013,05,05,05,17,10.70
2013,05,05,05,18,10.70
2013,05,05,05,19,10.70
2013,05,05,05,20,10.70
2013,05,05,05,21,10.70
2013,05,05,05,22,10.70
2013,05,05,05,23,10.70
2013,05,05,05,24,10.70
2013,05,05,05,25,10.70
2013,05,05,05,26,10.70
2013,05,05,05,27,10.70
2013,05,05,05,28,10.70
2013,05,05,05,29,10.70
2013,05,05,05,30,10.70
2013,05,05,05,31,10.70
2013,05,05,05,32,10.70
2013,05,05,05,33,10.70
2013,05,05,05,34,10.70
2013,05,05,05,35,10.70
2013,05,05,05,36,10.70
2013,05,05,05,37,10.70
2013,05,05,05,38,10.70
2013,05,05,05,39,10.60
2013,05,05,05,40,10.70
2013,05,05,05,41,10.70
2013,05,05,05,42,10.70
2013,05,05,05,43,10.70
2013,05,05,05,44,10.70
2013,05,05,05,45,10.70
2013,05,05,05,46,10.70
2013,05,05,05,47,10.70
2013,05,05,05,48,10.70
2013,05,05,05,49,10.60
2013,05,05,05,50,10.60
2013,05,05,05,51,10.60
2013,05,05,05,52,10.60
2013,05,05,05,53,10.60
2013,05,05,05,54,10.60
2013,05,05,05,55,10.60
2013,05,05,05,56,10.60
2013,05,05,05,57,10.50
2013,05,05,05,58,10.50
2013,05,05,05,59,10.50
2013,05,05,06,00,10.50
2013,05,05,06,01,10.50
2013,05,05,06,02,10.50
2013,05,05,06,03,10.50
2013,05,05,06,04,10.50
2013,05,05,06,05,10.50
2013,05,05,06,06,10.50
2013,05,05,06,07,10.50
2013,05,05,06,08,10.50
2013,05,05,06,09,10.50
2013,05,05,06,10,10.50
2013,05,05,06,11,10.50
2013,05,05,06,12,10.50
2013,05,05,06,13,10.50
2013,05,05,06,14,10.50
2013,05,05,06,15,10.50
2013,05,05,06,16,10.40
2013,05,05,06,17,10.40
2013,05,05,06,18,10.40
2013,05,05,06,19,10.40
2013,05,05,06,20,10.40
2013,05,05,06,21,10.40
2013,05,05,06,22,10.40
2013,05,05,06,23,10.40
2013,05,05,06,24,10.40
2013,05,05,06,25,10.40
2013,05,05,06,26,10.40
2013,05,05,06,27,10.40
2013,05,05,06,28,10.40
2013,05,05,06,29,10.40
2013,05,05,06,30,10.40
2013,05,05,06,31,10.40
2013,05,05,06,32,10.50
2013,05,05,06,33,10.50
2013,05,05,06,34,10.50
2013,05,05,06,35,10.50
2013,05,05,06,36,10.60
2013,05,05,06,37,10.70
2013,05,05,06,38,10.80
2013,05,05,06,39,10.80
2013,05,05,06,40,10.80
2013,05,05,06,41,10.90
2013,05,05,06,42,11.00
2013,05,05,06,43,11.00
2013,05,05,06,44,11.10
2013,05,05,06,45,11.20
2013,05,05,06,46,11.30
2013,05,05,06,47,11.40
2013,05,05,06,48,11.40
2013,05,05,06,49,11.50
2013,05,05,06,50,11.60
2013,05,05,06,51,11.60
2013,05,05,06,52,11.60
2013,05,05,06,53,11.70
2013,05,05,06,54,11.70
2013,05,05,06,55,11.80
2013,05,05,06,56,11.80
2013,05,05,06,57,11.80
2013,05,05,06,58,11.90
2013,05,05,06,59,11.90
2013,05,05,07,00,12.00
2013,05,05,07,01,12.00
2013,05,05,07,02,12.10
2013,05,05,07,03,12.20
2013,05,05,07,04,12.30
2013,05,05,07,05,12.30
2013,05,05,07,06,12.40
2013,05,05,07,07,12.50
2013,05,05,07,08,12.50
2013,05,05,07,09,12.60
2013,05,05,07,10,12.60
2013,05,05,07,11,12.70
2013,05,05,07,12,12.80
2013,05,05,07,13,12.80
2013,05,05,07,14,12.90
2013,05,05,07,15,13.00
2013,05,05,07,16,13.10
2013,05,05,07,17,13.20
2013,05,05,07,18,13.30
2013,05,05,07,19,13.40
2013,05,05,07,20,13.50
2013,05,05,07,21,13.60
2013,05,05,07,22,13.70
2013,05,05,07,23,13.80
2013,05,05,07,24,13.90
2013,05,05,07,25,13.90
2013,05,05,07,26,14.00
2013,05,05,07,27,14.00
2013,05,05,07,28,14.10
2013,05,05,07,29,14.10
2013,05,05,07,30,14.10
2013,05,05,07,31,14.10
2013,05,05,07,32,14.20
2013,05,05,07,33,14.20
2013,05,05,07,34,14.20
2013,05,05,07,35,14.30
2013,05,05,07,36,14.40
2013,05,05,07,37,14.50
2013,05,05,07,38,14.60
2013,05,05,07,39,14.60
2013,05,05,07,40,14.70
2013,05,05,07,41,14.80
2013,05,05,07,42,14.80
2013,05,05,07,43,14.90
2013,05,05,07,44,15.00
2013,05,05,07,45,15.00
2013,05,05,07,46,15.00
2013,05,05,07,47,15.00
2013,05,05,07,48,15.10
2013,05,05,07,49,15.20
2013,05,05,07,50,15.30
2013,05,05,07,51,15.30
2013,05,05,07,52,15.40
2013,05,05,07,53,15.50
2013,05,05,07,54,15.60
2013,05,05,07,55,15.70
2013,05,05,07,56,15.80
2013,05,05,07,57,15.80
2013,05,05,07,58,15.90
2013,05,05,07,59,15.90
2013,05,05,08,00,16.00
2013,05,05,08,01,16.10
2013,05,05,08,02,16.20
2013,05,05,08,03,16.30
2013,05,05,08,04,16.40
2013,05,05,08,05,16.50
2013,05,05,08,06,16.60
2013,05,05,08,07,16.60
2013,05,05,08,08,16.70
2013,05,05,08,09,16.80
2013,05,05,08,10,16.90
2013,05,05,08,11,17.00
2013,05,05,08,12,17.10
2013,05,05,08,13,17.10
2013,05,05,08,14,17.20
2013,05,05,08,15,17.20
2013,05,05,08,16,17.30
2013,05,05,08,17,17.40
2013,05,05,08,18,17.50
2013,05,05,08,19,17.70
2013,05,05,08,20,17.80
2013,05,05,08,21,17.90
2013,05,05,08,22,18.00
2013,05,05,08,23,18.10
2013,05,05,08,24,18.20
2013,05,05,08,25,18.30
2013,05,05,08,26,18.30
2013,05,05,08,27,18.40
2013,05,05,08,28,18.40
2013,05,05,08,29,18.40
2013,05,05,08,30,18.40
2013,05,05,08,31,18.50
2013,05,05,08,32,18.50
2013,05,05,08,33,18.50
2013,05,05,08,34,18.50
2013,05,05,08,35,18.50
2013,05,05,08,36,18.60
2013,05,05,08,37,18.60
2013,05,05,08,38,18.70
2013,05,05,08,39,18.70
2013,05,05,08,40,18.70
2013,05,05,08,41,18.80
2013,05,05,08,42,18.80
2013,05,05,08,43,18.80
2013,05,05,08,44,18.90
2013,05,05,08,45,18.90
2013,05,05,08,46,19.00
2013,05,05,08,47,19.00
2013,05,05,08,48,19.10
2013,05,05,08,49,19.10
2013,05,05,08,50,19.10
2013,05,05,08,51,19.10
2013,05,05,08,52,19.10
2013,05,05,08,53,19.10
2013,05,05,08,54,19.20
2013,05,05,08,55,19.20
2013,05,05,08,56,19.30
2013,05,05,08,57,19.30
2013,05,05,08,58,19.30
2013,05,05,08,59,19.30
2013,05,05,09,00,19.40
2013,05,05,09,01,19.40
2013,05,05,09,02,19.40
2013,05,05,09,03,19.40
2013,05,05,09,04,19.40
2013,05,05,09,05,19.40
2013,05,05,09,06,19.40
2013,05,05,09,07,19.30
2013,05,05,09,08,19.30
2013,05,05,09,09,19.30
2013,05,05,09,10,19.40
2013,05,05,09,11,19.40
2013,05,05,09,12,19.40
2013,05,05,09,13,19.40
2013,05,05,09,14,19.40
2013,05,05,09,15,19.40
2013,05,05,09,16,19.50
2013,05,05,09,17,19.50
2013,05,05,09,18,19.50
2013,05,05,09,19,19.60
2013,05,05,09,20,19.60
2013,05,05,09,21,19.60
2013,05,05,09,22,19.50
2013,05,05,09,23,19.50
2013,05,05,09,24,19.40
2013,05,05,09,25,19.30
2013,05,05,09,26,19.20
2013,05,05,09,27,19.20
2013,05,05,09,28,19.20
2013,05,05,09,29,19.20
2013,05,05,09,30,19.20
2013,05,05,09,31,19.20
2013,05,05,09,32,19.20
2013,05,05,09,33,19.20
2013,05,05,09,34,19.10
2013,05,05,09,35,19.10
2013,05,05,09,36,19.10
2013,05,05,09,37,19.10
2013,05,05,09,38,19.10
2013,05,05,09,39,19.10
2013,05,05,09,40,19.20
2013,05,05,09,41,19.30
2013,05,05,09,42,19.40
2013,05,05,09,43,19.40
2013,05,05,09,44,19.50
2013,05,05,09,45,19.50
2013,05,05,09,46,19.50
2013,05,05,09,47,19.40
2013,05,05,09,48,19.30
2013,05,05,09,49,19.30
2013,05,05,09,50,19.30
2013,05,05,09,51,19.30
2013,05,05,09,52,19.30
2013,05,05,09,53,19.40
2013,05,05,09,54,19.50
2013,05,05,09,55,19.60
2013,05,05,09,56,19.60
2013,05,05,09,57,19.70
2013,05,05,09,58,19.70
2013,05,05,09,59,19.70
2013,05,05,10,00,19.70
2013,05,05,10,01,19.70
2013,05,05,10,02,19.60
2013,05,05,10,03,19.60
2013,05,05,10,04,19.60
2013,05,05,10,05,19.70
2013,05,05,10,06,19.80
2013,05,05,10,07,19.90
2013,05,05,10,08,19.90
2013,05,05,10,09,20.00
2013,05,05,10,10,20.20
2013,05,05,10,11,20.30
2013,05,05,10,12,20.40
2013,05,05,10,13,20.50
2013,05,05,10,14,20.60
2013,05,05,10,15,20.80
2013,05,05,10,16,21.00
2013,05,05,10,17,21.10
2013,05,05,10,18,21.30
2013,05,05,10,19,21.40
2013,05,05,10,20,21.50
2013,05,05,10,21,21.60
2013,05,05,10,22,21.70
2013,05,05,10,23,21.70
2013,05,05,10,24,21.70
2013,05,05,10,25,21.60
2013,05,05,10,26,21.60
2013,05,05,10,27,21.60
2013,05,05,10,28,21.60
2013,05,05,10,29,21.60
2013,05,05,10,30,21.50
2013,05,05,10,31,21.40
2013,05,05,10,32,21.40
2013,05,05,10,33,21.30
2013,05,05,10,34,21.30
2013,05,05,10,35,21.20
2013,05,05,10,36,21.20
2013,05,05,10,37,21.20
2013,05,05,10,38,21.30
2013,05,05,10,39,21.30
2013,05,05,10,40,21.30
2013,05,05,10,41,21.30
2013,05,05,10,42,21.30
2013,05,05,10,43,21.30
2013,05,05,10,44,21.30
2013,05,05,10,45,21.40
2013,05,05,10,46,21.50
2013,05,05,10,47,21.70
2013,05,05,10,48,21.80
2013,05,05,10,49,21.90
2013,05,05,10,50,21.90
2013,05,05,10,51,21.90
2013,05,05,10,52,21.90
2013,05,05,10,53,22.00
2013,05,05,10,54,22.00
2013,05,05,10,55,22.10
2013,05,05,10,56,22.20
2013,05,05,10,57,22.30
2013,05,05,10,58,22.40
2013,05,05,10,59,22.50
2013,05,05,11,00,22.70
2013,05,05,11,01,22.80
2013,05,05,11,02,22.90
2013,05,05,11,03,23.00
2013,05,05,11,04,23.10
2013,05,05,11,05,23.20
2013,05,05,11,06,23.30
2013,05,05,11,07,23.40
2013,05,05,11,08,23.40
2013,05,05,11,09,23.30
2013,05,05,11,10,23.30
2013,05,05,11,11,23.30
2013,05,05,11,12,23.20
2013,05,05,11,13,23.10
2013,05,05,11,14,23.00
2013,05,05,11,15,22.90
2013,05,05,11,16,22.90
2013,05,05,11,17,22.80
2013,05,05,11,18,22.90
2013,05,05,11,19,22.90
2013,05,05,11,20,23.00
2013,05,05,11,21,23.10
2013,05,05,11,22,23.20
2013,05,05,11,23,23.10
2013,05,05,11,24,23.10
2013,05,05,11,25,23.00
2013,05,05,11,26,22.90
2013,05,05,11,27,22.80
2013,05,05,11,28,22.60
2013,05,05,11,29,22.60
2013,05,05,11,30,22.50
2013,05,05,11,31,22.50
2013,05,05,11,32,22.60
2013,05,05,11,33,22.60
2013,05,05,11,34,22.50
2013,05,05,11,35,22.50
2013,05,05,11,36,22.50
2013,05,05,11,37,22.50
2013,05,05,11,38,22.60
2013,05,05,11,39,22.80
2013,05,05,11,40,22.90
2013,05,05,11,41,23.00
2013,05,05,11,42,23.10
2013,05,05,11,43,23.20
2013,05,05,11,44,23.20
2013,05,05,11,45,23.20
2013,05,05,11,46,23.20
2013,05,05,11,47,23.20
2013,05,05,11,48,23.20
2013,05,05,11,49,23.20
2013,05,05,11,50,23.20
2013,05,05,11,51,23.20
2013,05,05,11,52,23.20
2013,05,05,11,53,23.30
2013,05,05,11,54,23.40
2013,05,05,11,55,23.40
2013,05,05,11,56,23.40
2013,05,05,11,57,23.40
2013,05,05,11,58,23.40
2013,05,05,11,59,23.40
2013,05,05,12,00,23.40
2013,05,05,12,01,23.40
2013,05,05,12,02,23.50
2013,05,05,12,03,23.60
2013,05,05,12,04,23.60
2013,05,05,12,05,23.60
2013,05,05,12,06,23.60
2013,05,05,12,07,23.70
2013,05,05,12,08,23.70
2013,05,05,12,09,23.70
2013,05,05,12,10,23.70
2013,05,05,12,11,23.70
2013,05,05,12,12,23.80
2013,05,05,12,13,23.80
2013,05,05,12,14,23.80
2013,05,05,12,15,23.80
2013,05,05,12,16,23.80
2013,05,05,12,17,23.80
2013,05,05,12,18,23.80
2013,05,05,12,19,23.90
2013,05,05,12,20,24.00
2013,05,05,12,21,24.10
2013,05,05,12,22,24.10
2013,05,05,12,23,24.30
2013,05,05,12,24,24.30
2013,05,05,12,25,24.40
2013,05,05,12,26,24.40
2013,05,05,12,27,24.40
2013,05,05,12,28,24.30
2013,05,05,12,29,24.30
2013,05,05,12,30,24.30
2013,05,05,12,31,24.30
2013,05,05,12,32,24.30
2013,05,05,12,33,24.40
2013,05,05,12,34,24.50
2013,05,05,12,35,24.60
2013,05,05,12,36,24.80
2013,05,05,12,37,24.90
2013,05,05,12,38,25.00
2013,05,05,12,39,25.10
2013,05,05,12,40,25.10
2013,05,05,12,41,25.20
2013,05,05,12,42,25.20
2013,05,05,12,43,25.20
2013,05,05,12,44,25.20
2013,05,05,12,45,25.20
2013,05,05,12,46,25.20
2013,05,05,12,47,25.20
2013,05,05,12,48,25.20
2013,05,05,12,49,25.20
2013,05,05,12,50,25.20
2013,05,05,12,51,25.10
2013,05,05,12,52,25.10
2013,05,05,12,53,25.10
2013,05,05,12,54,25.10
2013,05,05,12,55,25.00
2013,05,05,12,56,25.00
2013,05,05,12,57,24.80
2013,05,05,12,58,24.70
2013,05,05,12,59,24.70
2013,05,05,13,00,24.70
2013,05,05,13,01,24.80
2013,05,05,13,02,24.80
2013,05,05,13,03,24.90
2013,05,05,13,04,25.00
2013,05,05,13,05,25.10
2013,05,05,13,06,25.20
2013,05,05,13,07,25.30
2013,05,05,13,08,25.30
2013,05,05,13,09,25.40
2013,05,05,13,10,25.40
2013,05,05,13,11,25.50
2013,05,05,13,12,25.60
2013,05,05,13,13,25.80
2013,05,05,13,14,25.90
2013,05,05,13,15,25.90
2013,05,05,13,16,25.90
2013,05,05,13,17,25.90
2013,05,05,13,18,25.90
2013,05,05,13,19,25.90
2013,05,05,13,20,25.90
2013,05,05,13,21,25.80
2013,05,05,13,22,25.80
2013,05,05,13,23,25.80
2013,05,05,13,24,25.70
2013,05,05,13,25,25.70
2013,05,05,13,26,25.70
2013,05,05,13,27,25.70
2013,05,05,13,28,25.80
2013,05,05,13,29,25.90
2013,05,05,13,30,26.00
2013,05,05,13,31,26.10
2013,05,05,13,32,26.30
2013,05,05,13,33,26.40
2013,05,05,13,34,26.50
2013,05,05,13,35,26.60
2013,05,05,13,36,26.60
2013,05,05,13,37,26.70
2013,05,05,13,38,26.80
2013,05,05,13,39,26.90
2013,05,05,13,40,27.00
2013,05,05,13,41,27.00
2013,05,05,13,42,27.10
2013,05,05,13,43,27.10
2013,05,05,13,44,27.20
2013,05,05,13,45,27.20
2013,05,05,13,46,27.20
2013,05,05,13,47,27.20
2013,05,05,13,48,27.20
2013,05,05,13,49,27.20
2013,05,05,13,50,27.20
2013,05,05,13,51,27.30
2013,05,05,13,52,27.30
2013,05,05,13,53,27.30
2013,05,05,13,54,27.30
2013,05,05,13,55,27.30
2013,05,05,13,56,27.30
2013,05,05,13,57,27.20
2013,05,05,13,58,27.10
2013,05,05,13,59,27.10
2013,05,05,14,00,27.10
2013,05,05,14,01,27.00
2013,05,05,14,02,26.90
2013,05,05,14,03,26.90
2013,05,05,14,04,26.90
2013,05,05,14,05,26.90
2013,05,05,14,06,26.80
2013,05,05,14,07,26.80
2013,05,05,14,08,26.70
2013,05,05,14,09,26.70
2013,05,05,14,10,26.70
2013,05,05,14,11,26.70
2013,05,05,14,12,26.80
2013,05,05,14,13,26.80
2013,05,05,14,14,26.80
2013,05,05,14,15,26.80
2013,05,05,14,16,26.80
2013,05,05,14,17,26.80
2013,05,05,14,18,26.70
2013,05,05,14,19,26.70
2013,05,05,14,20,26.70
2013,05,05,14,21,26.80
2013,05,05,14,22,26.80
2013,05,05,14,23,26.80
2013,05,05,14,24,26.90
2013,05,05,14,25,27.00
2013,05,05,14,26,27.00
2013,05,05,14,27,26.90
2013,05,05,14,28,26.80
2013,05,05,14,29,26.70
2013,05,05,14,30,26.60
2013,05,05,14,31,26.50
2013,05,05,14,32,26.40
2013,05,05,14,33,26.40
2013,05,05,14,34,26.40
2013,05,05,14,35,26.50
2013,05,05,14,36,26.60
2013,05,05,14,37,26.60
2013,05,05,14,38,26.60
2013,05,05,14,39,26.70
2013,05,05,14,40,26.80
2013,05,05,14,41,26.90
2013,05,05,14,42,27.00
2013,05,05,14,43,27.00
2013,05,05,14,44,27.10
2013,05,05,14,45,27.10
2013,05,05,14,46,27.20
2013,05,05,14,47,27.10
2013,05,05,14,48,27.00
2013,05,05,14,49,26.90
2013,05,05,14,50,26.90
2013,05,05,14,51,27.00
2013,05,05,14,52,27.00
2013,05,05,14,53,26.90
2013,05,05,14,54,26.90
2013,05,05,14,55,26.90
2013,05,05,14,56,26.90
2013,05,05,14,57,26.90
2013,05,05,14,58,27.00
2013,05,05,14,59,27.00
2013,05,05,15,00,27.00
2013,05,05,15,01,26.90
2013,05,05,15,02,26.80
2013,05,05,15,03,26.80
2013,05,05,15,04,26.90
2013,05,05,15,05,26.90
2013,05,05,15,06,27.00
2013,05,05,15,07,27.10
2013,05,05,15,08,27.20
2013,05,05,15,09,27.20
2013,05,05,15,10,27.30
2013,05,05,15,11,27.30
2013,05,05,15,12,27.30
2013,05,05,15,13,27.30
2013,05,05,15,14,27.30
2013,05,05,15,15,27.40
2013,05,05,15,16,27.40
2013,05,05,15,17,27.50
2013,05,05,15,18,27.50
2013,05,05,15,19,27.40
2013,05,05,15,20,27.40
2013,05,05,15,21,27.40
2013,05,05,15,22,27.30
2013,05,05,15,23,27.30
2013,05,05,15,24,27.30
2013,05,05,15,25,27.30
2013,05,05,15,26,27.30
2013,05,05,15,27,27.30
2013,05,05,15,28,27.20
2013,05,05,15,29,27.10
2013,05,05,15,30,27.10
2013,05,05,15,31,27.10
2013,05,05,15,32,27.20
2013,05,05,15,33,27.20
2013,05,05,15,34,27.30
2013,05,05,15,35,27.40
2013,05,05,15,36,27.40
2013,05,05,15,37,27.40
2013,05,05,15,38,27.30
2013,05,05,15,39,27.30
2013,05,05,15,40,27.30
2013,05,05,15,41,27.30
2013,05,05,15,42,27.30
2013,05,05,15,43,27.20
2013,05,05,15,44,27.10
2013,05,05,15,45,27.10
2013,05,05,15,46,27.10
2013,05,05,15,47,27.10
2013,05,05,15,48,27.10
2013,05,05,15,49,27.10
2013,05,05,15,50,27.20
2013,05,05,15,51,27.20
2013,05,05,15,52,27.20
2013,05,05,15,53,27.10
2013,05,05,15,54,27.10
2013,05,05,15,55,27.20
2013,05,05,15,56,27.10
2013,05,05,15,57,27.10
2013,05,05,15,58,27.20
2013,05,05,15,59,27.20
2013,05,05,16,00,27.20
2013,05,05,16,01,27.30
2013,05,05,16,02,27.40
2013,05,05,16,03,27.50
2013,05,05,16,04,27.60
2013,05,05,16,05,27.70
2013,05,05,16,06,27.70
2013,05,05,16,07,27.70
2013,05,05,16,08,27.60
2013,05,05,16,09,27.60
2013,05,05,16,10,27.50
2013,05,05,16,11,27.40
2013,05,05,16,12,27.40
2013,05,05,16,13,27.50
2013,05,05,16,14,27.50
2013,05,05,16,15,27.60
2013,05,05,16,16,27.70
2013,05,05,16,17,27.80
2013,05,05,16,18,27.80
2013,05,05,16,19,27.80
2013,05,05,16,20,27.80
2013,05,05,16,21,27.90
2013,05,05,16,22,27.90
2013,05,05,16,23,27.90
2013,05,05,16,24,27.90
2013,05,05,16,25,27.80
2013,05,05,16,26,27.80
2013,05,05,16,27,27.80
2013,05,05,16,28,27.90
2013,05,05,16,29,27.80
2013,05,05,16,30,27.70
2013,05,05,16,31,27.70
2013,05,05,16,32,27.70
2013,05,05,16,33,27.60
2013,05,05,16,34,27.50
2013,05,05,16,35,27.40
2013,05,05,16,36,27.30
2013,05,05,16,37,27.30
2013,05,05,16,38,27.30
2013,05,05,16,39,27.30
2013,05,05,16,40,27.40
2013,05,05,16,41,27.50
2013,05,05,16,42,27.60
2013,05,05,16,43,27.60
2013,05,05,16,44,27.60
2013,05,05,16,45,27.60
2013,05,05,16,46,27.50
2013,05,05,16,47,27.50
2013,05,05,16,48,27.40
2013,05,05,16,49,27.40
2013,05,05,16,50,27.50
2013,05,05,16,51,27.50
2013,05,05,16,52,27.50
2013,05,05,16,53,27.50
2013,05,05,16,54,27.60
2013,05,05,16,55,27.60
2013,05,05,16,56,27.60
2013,05,05,16,57,27.60
2013,05,05,16,58,27.60
2013,05,05,16,59,27.60
2013,05,05,17,00,27.60
2013,05,05,17,01,27.60
2013,05,05,17,02,27.60
2013,05,05,17,03,27.70
2013,05,05,17,04,27.70
2013,05,05,17,05,27.70
2013,05,05,17,06,27.80
2013,05,05,17,07,27.80
2013,05,05,17,08,27.90
2013,05,05,17,09,27.90
2013,05,05,17,10,27.90
2013,05,05,17,11,27.90
2013,05,05,17,12,27.80
2013,05,05,17,13,27.80
2013,05,05,17,14,27.70
2013,05,05,17,15,27.70
2013,05,05,17,16,27.70
2013,05,05,17,17,27.60
2013,05,05,17,18,27.60
2013,05,05,17,19,27.60
2013,05,05,17,20,27.70
2013,05,05,17,21,27.70
2013,05,05,17,22,27.70